Pipestone, MN

6:37 PM CDT on September 25, 2017 (GMT -0500)
Pipestone Municipal

Weather History for KPQN - October, 2011

Change the Weather History Date:

Thursday, October 6, 2011

  Actual Average Record
Temperature  
Mean Temperature 71 °F -  
Max Temperature 82 °F 62 °F 87 °F (2007)
Min Temperature 60 °F 40 °F 21 °F (2012)
Cooling Degree Days 6    
Growing Degree Days 21 (Base 50)    
Moisture  
Dew Point 43 °F    
Average Humidity 36    
Maximum Humidity 55    
Minimum Humidity 21    
Precipitation  
Precipitation 0.00 in - - ()
Sea Level Pressure  
Sea Level Pressure 29.91 in    
Wind  
Wind Speed 15 mph (SSE)    
Max Wind Speed 30 mph    
Max Gust Speed 40 mph    
Visibility 10 miles    
Events Rain , Thunderstorm    
Averages and records for this station are not official NWS values.
T = Trace of Precipitation, MM = Missing Value Source: NWS Daily Summary

Daily Weather History Graph

Daily Weather History Graph

Search for Another Location

Airport or City:

Trip Planner

Search our weather history database for the weather conditions in past years. The results will help you decide how hot, cold, wet, or windy it might be!

Date:

Astronomy

Oct. 06, 2011 Rise Set
Actual Time 7:28 AM CDT 6:57 PM CDT
Civil Twilight 6:59 AM CDT 7:26 PM CDT
Nautical Twilight 6:26 AM CDT 7:59 PM CDT
Astronomical Twilight 5:52 AM CDT 8:33 PM CDT
Moon 4:20 PM CDT (10/6) 2:07 AM CDT (10/6)
Length of Visible Light 12h 26m
Length of Day
11h 28m
Waxing Gibbous, 75% of the Moon is Illuminated
Oct 6
Waxing Gibbous
Oct 11
Full
Oct 19
Last Quarter
Oct 26
New
Nov 2
First Quarter

Hourly Weather History & Observations

Time (CDT) Temp. Dew Point Humidity Pressure Visibility Wind Dir Wind Speed Gust Speed Precip Events Conditions
12:13 AM 69.8 °F 39.2 °F 33% 29.96 in 10.0 mi South 13.8 mph - N/A   Clear
12:32 AM 68.0 °F 41.0 °F 37% 29.96 in 10.0 mi South 12.7 mph 17.3 mph N/A   Clear
12:52 AM 68.0 °F 41.0 °F 37% 29.96 in 10.0 mi South 11.5 mph - N/A   Clear
1:13 AM 68.0 °F 41.0 °F 37% 29.96 in 10.0 mi South 12.7 mph 17.3 mph N/A   Clear
1:32 AM 66.2 °F 41.0 °F 40% 29.96 in 10.0 mi South 11.5 mph 19.6 mph N/A   Clear
1:52 AM 66.2 °F 41.0 °F 40% 29.96 in 10.0 mi South 12.7 mph 18.4 mph N/A   Clear
2:13 AM 66.2 °F 42.8 °F 43% 29.97 in 10.0 mi SSE 11.5 mph 17.3 mph N/A   Clear
2:32 AM 64.4 °F 42.8 °F 45% 29.97 in 10.0 mi South 11.5 mph 18.4 mph N/A   Clear
2:52 AM 64.4 °F 42.8 °F 45% 29.97 in 10.0 mi South 12.7 mph - N/A   Clear
3:12 AM 64.4 °F 42.8 °F 45% 29.96 in 10.0 mi SSE 10.4 mph - N/A   Clear
3:32 AM 62.6 °F 42.8 °F 48% 29.97 in 10.0 mi SSE 11.5 mph - N/A   Clear
4:12 AM 62.6 °F 42.8 °F 48% 29.96 in 10.0 mi SSE 10.4 mph - N/A   Clear
4:32 AM 62.6 °F 42.8 °F 48% 29.96 in 10.0 mi SSE 11.5 mph 18.4 mph N/A   Clear
4:52 AM 62.6 °F 42.8 °F 48% 29.96 in 10.0 mi SSE 10.4 mph - N/A   Clear
5:13 AM 62.6 °F 42.8 °F 48% 29.95 in 10.0 mi SSE 10.4 mph 17.3 mph N/A   Clear
5:32 AM 62.6 °F 42.8 °F 48% 29.96 in 10.0 mi SSE 11.5 mph 17.3 mph N/A   Clear
5:52 AM 62.6 °F 42.8 °F 48% 29.96 in 10.0 mi South 11.5 mph - N/A   Clear
6:12 AM 62.6 °F 42.8 °F 48% 29.96 in 10.0 mi SSE 10.4 mph - N/A   Clear
6:32 AM 62.6 °F 44.6 °F 52% 29.96 in 10.0 mi SSE 12.7 mph 17.3 mph N/A   Clear
6:52 AM 60.8 °F 44.6 °F 55% 29.96 in 10.0 mi SSE 11.5 mph - N/A   Clear
7:12 AM 60.8 °F 44.6 °F 55% 29.96 in 10.0 mi SSE 13.8 mph 18.4 mph N/A   Clear
7:52 AM 62.6 °F 44.6 °F 52% 29.96 in 10.0 mi SSE 13.8 mph 19.6 mph N/A   Clear
8:13 AM 62.6 °F 44.6 °F 52% 29.95 in 10.0 mi SSE 13.8 mph 20.7 mph N/A   Clear
8:32 AM 64.4 °F 44.6 °F 49% 29.95 in 10.0 mi SSE 13.8 mph 19.6 mph N/A   Clear
8:52 AM 64.4 °F 44.6 °F 49% 29.95 in 10.0 mi SSE 12.7 mph 19.6 mph N/A   Clear
9:13 AM 64.4 °F 44.6 °F 49% 29.95 in 10.0 mi South 13.8 mph 23.0 mph N/A   Clear
9:32 AM 66.2 °F 44.6 °F 46% 29.95 in 10.0 mi South 16.1 mph 21.9 mph N/A   Clear
10:13 AM 69.8 °F 44.6 °F 40% 29.95 in 10.0 mi SSE 13.8 mph 21.9 mph N/A   Clear
10:32 AM 71.6 °F 44.6 °F 38% 29.95 in 10.0 mi South 15.0 mph 23.0 mph N/A   Clear
10:52 AM 73.4 °F 44.6 °F 36% 29.95 in 10.0 mi South 16.1 mph 24.2 mph N/A   Clear
11:13 AM 75.2 °F 42.8 °F 31% 29.94 in 10.0 mi South 24.2 mph 28.8 mph N/A Thunderstorm Clear
11:32 AM 75.2 °F 42.8 °F 31% 29.93 in 10.0 mi South 21.9 mph 28.8 mph N/A   Clear
11:53 AM 78.8 °F 42.8 °F 28% 29.93 in 10.0 mi South 23.0 mph 32.2 mph N/A   Clear
12:12 PM 78.8 °F 42.8 °F 28% 29.92 in 10.0 mi South 20.7 mph 27.6 mph N/A   Clear
12:32 PM 80.6 °F 41.0 °F 24% 29.91 in 7.0 mi South 24.2 mph 36.8 mph N/A   Clear
12:53 PM 80.6 °F 39.2 °F 23% 29.90 in 10.0 mi South 20.7 mph 35.7 mph N/A   Clear
1:12 PM 82.4 °F 39.2 °F 21% 29.89 in 10.0 mi South 27.6 mph 33.4 mph N/A   Clear
1:32 PM 82.4 °F 39.2 °F 21% 29.88 in 7.0 mi South 23.0 mph 36.8 mph N/A   Clear
1:53 PM 82.4 °F 39.2 °F 21% 29.88 in 7.0 mi South 24.2 mph 40.3 mph N/A   Scattered Clouds
2:12 PM 82.4 °F 39.2 °F 21% 29.88 in 7.0 mi South 29.9 mph 39.1 mph N/A   Mostly Cloudy
2:32 PM 78.8 °F 41.0 °F 26% 29.88 in 10.0 mi South 19.6 mph 35.7 mph N/A   Scattered Clouds
3:12 PM 78.8 °F 39.2 °F 24% 29.88 in 10.0 mi South 26.5 mph 38.0 mph N/A   Clear
3:33 PM 75.2 °F 46.4 °F 36% 29.87 in 10.0 mi South 20.7 mph 34.5 mph N/A Rain Light Rain
4:12 PM 77.0 °F 46.4 °F 34% 29.85 in 10.0 mi SSE 15.0 mph 23.0 mph N/A   Clear
4:33 PM 80.6 °F 42.8 °F 26% 29.84 in 10.0 mi South 24.2 mph 31.1 mph N/A   Mostly Cloudy
4:52 PM 80.6 °F 41.0 °F 24% 29.83 in 10.0 mi SSE 27.6 mph 34.5 mph N/A   Mostly Cloudy
5:12 PM 80.6 °F 41.0 °F 24% 29.83 in 10.0 mi South 24.2 mph 38.0 mph N/A   Clear
5:33 PM 80.6 °F 42.8 °F 26% 29.82 in 10.0 mi SSE 23.0 mph 35.7 mph N/A   Clear
5:52 PM 80.6 °F 42.8 °F 26% 29.82 in 10.0 mi SSE 20.7 mph 29.9 mph N/A   Clear
6:12 PM 80.6 °F 42.8 °F 26% 29.82 in 10.0 mi SSE 23.0 mph 33.4 mph N/A   Clear
6:33 PM 78.8 °F 42.8 °F 28% 29.82 in 10.0 mi SSE 18.4 mph 26.5 mph N/A   Clear
6:52 PM 78.8 °F 42.8 °F 28% 29.82 in 10.0 mi South 26.5 mph 33.4 mph N/A   Clear
7:12 PM 78.8 °F 42.8 °F 28% 29.82 in 10.0 mi SSE 19.6 mph 29.9 mph N/A   Clear
7:33 PM 78.8 °F 42.8 °F 28% 29.82 in 10.0 mi SSE 19.6 mph 31.1 mph N/A   Clear
7:52 PM 77.0 °F 42.8 °F 29% 29.82 in 10.0 mi SSE 19.6 mph 28.8 mph N/A   Clear
8:32 PM 75.2 °F 42.8 °F 31% 29.83 in 10.0 mi SSE 20.7 mph 26.5 mph N/A   Clear
8:52 PM 75.2 °F 42.8 °F 31% 29.83 in 10.0 mi SSE 18.4 mph 28.8 mph N/A   Clear
9:13 PM 75.2 °F 42.8 °F 31% 29.83 in 10.0 mi SSE 19.6 mph 27.6 mph N/A   Clear
9:32 PM 75.2 °F 42.8 °F 31% 29.82 in 10.0 mi SSE 17.3 mph 26.5 mph N/A   Clear
9:52 PM 75.2 °F 42.8 °F 31% 29.82 in 10.0 mi SSE 19.6 mph 29.9 mph N/A   Clear
10:12 PM 73.4 °F 42.8 °F 33% 29.81 in 10.0 mi SSE 24.2 mph 29.9 mph N/A   Clear
10:32 PM 73.4 °F 42.8 °F 33% 29.82 in 10.0 mi South 24.2 mph 33.4 mph N/A   Clear
10:53 PM 73.4 °F 44.6 °F 36% 29.83 in 10.0 mi South 21.9 mph 32.2 mph N/A   Clear
11:12 PM 73.4 °F 44.6 °F 36% 29.83 in 10.0 mi South 23.0 mph 33.4 mph N/A   Clear
11:33 PM 73.4 °F 44.6 °F 36% 29.83 in 10.0 mi South 20.7 mph 27.6 mph N/A   Clear
11:52 PM 73.4 °F 44.6 °F 36% 29.84 in 10.0 mi South 17.3 mph 25.3 mph N/A   Clear